SL-16 DEB

Satellite information

Favourite Embed

Satellite Type and Status

DEBRISIN ORBIT

Key statistics

Satellite SL-16 DEB at a glance.

Uptime

11854

Days in orbit

Revolutions

≈ 13.9

Per day

Orbit

LEO

Low Earth Orbit

Inclination

71.0

Latest

Satellite identification and parameters

Extended collection of information and parameters for SL-16 DEB.

Object identification

Identified? True

Debris? True

Object name: SL-16 DEB

International designator: 1993-016Z

Object number (NORAD): 22615

Object ID (CCSDS): 22615

Country: COMMONWEALTH OF INDEPENDENT STATES (CIS)

Current information (Y/N): Y

RCS size: SMALL

Orbital parameters

Period: 103.312 minutes

Inclination: 71.0011 deg

SMA: 7293.365 km

Apoapsis: 1010.187 km

Periapsis: 820.272 km

RAAN: 283.836 deg

Eccentricy: 0.01301972

Argument of periapsis: 177.2856 deg

Mean anomaly: 304.3949 deg

Mean motion: 13.93833395 rev/day

Mean motion (dot): 0.00000764 rev/day2

B* drag term: 0.00057212937 1/REarth

Two-line elements (TLE)

Creation date: Sept. 8, 2025, 3:16 a.m.

Reference frame: TEME

Reference center: EARTH

Epoch: Sept. 7, 2025, 12:36 p.m. UTC

TLE line 0: 0 SL-16 DEB

TLE line 1: 1 22615U 93016Z 25250.52568632 .00000764 00000-0 57213-3 0 9994

TLE line 2: 2 22615 71.0011 283.8360 0130197 177.2856 304.3949 13.93833395642174

Live tracking on map

Real-time ground track for satellite SL-16 DEB.

In-orbit conjunctions

A list of the most updated potential collisions computed for object SL-16 DEB.

Target Orbit TCA Probability of collision Miss distance Type
METEOR 1-21 LEO 2025-07-05 06:13:56 0.0001463059 299.0 (m) PAYLOAD
SL-3 DEB LEO 2025-04-28 09:15:59 0.0001106757 683.0 (m) DEBRIS

Associated space launch

Second generation ELING satellite

SL-16 DEB was lifted into orbit during the mission ‘Zenit-2 | Tselina-2 13’, on board a Zenit-2 space rocket.

The launch took place on March 26, 1993, 2:21 a.m. from 45/1.

For more information about the launch, click the button.

Launch to space Zenit-2 | Tselina-2 13
Zenit-2 | Tselina-2 13

Agency: N/A

Status: Launch Successful

Launch date: March 26, 1993, 2:21 a.m. UTC

Rocket: Zenit-2

Launch pad: 45/1

Location: Baikonur Cosmodrome, Republic of Kazakhstan

...

Latest news about this satellite

There are no fresh news available about this satellite. Check back as we update our databases every day.


Newsletter sign-up

Weekly statistics, charts and insights to help you stay on top of the space industry.